Flag for Austria Weather past 2 weeks in Wels, Upper Austria, Austria

Now
76 °F

Partly sunny.


Feels Like: 78 °F
Forecast: 63 / 76 °F
Wind: N/A

Location: Linz / Hoersching-Flughafen

Current Time: Jul 29, 2014 at 5:04:47 PM

Latest Report: Jul 29, 2014 at 4:00 PM


Visibility: 19 mi

Pressure: 29.68 "Hg

Humidity: 62%

Dew point: 62 °F

Location of WelsLocation

Historic Weather in Wels — Graph

°F

Wels temperature yesterday

Maximum temperature yesterday: 74 °F (at 3:00 PM)
Minimum temperature yesterday: 65 °F (at 6:00 AM)
Average temperature yesterday: 69 °F

Past Weeks' High & Low Weather Summary

 TemperatureHumidityPressure
High95 °F (Jul 20, 5:00 PM)100% (Jul 23, 3:00 AM)30.16 "Hg (Jul 23, 3:00 AM)
Low53 °F (Jul 24, 6:00 AM)24% (Jul 20, 5:00 PM)29.70 "Hg (Jul 29, 3:00 PM)
Average70 °F71%29.94 "Hg
* Reported Jul 14 3:00 PM — Jul 29 3:00 PM, Wels, Weather by CustomWeather, © 2014

Note: Actual official high and low records may vary slightly from our data, if they occured in-between our weather recording intervals... More about our weather records

Advertising

Wels weather history for previous 24 hours

 ConditionsComfort  
Time TempWeatherWind HumidityBarometerVisibility
3:00 PM
Jul 29
75 °FPartly sunny.3 mph63%29.70 "Hg18 mi
2:00 PM74 °FPartly sunny.N/A66%29.72 "Hg19 mi
1:00 PM73 °FPartly sunny.N/A70%29.73 "Hg16 mi
12:00 PM70 °FOvercast.N/A76%29.76 "Hg9 mi
11:00 AM69 °FOvercast.N/A82%29.76 "Hg10 mi
10:00 AM68 °FOvercast.N/A83%29.76 "Hg13 mi
9:00 AM67 °FLow clouds.N/A85%29.76 "Hg7 mi
8:00 AM66 °FLow clouds.N/A89%29.76 "Hg6 mi
7:00 AM65 °FLow clouds.N/A90%29.75 "Hg6 mi
6:00 AM64 °FOvercast.N/A92%29.75 "Hg4 mi
5:00 AM64 °FOvercast.3 mph92%29.75 "Hg5 mi
4:00 AM64 °FOvercast.N/A92%29.75 "Hg5 mi
3:00 AM64 °FOvercast.3 mph92%29.75 "Hg6 mi
2:00 AM64 °FMild.N/A93%29.75 "Hg5 mi
1:00 AM64 °FMild.N/A93%29.76 "Hg5 mi
12:00 AM65 °FPassing clouds.N/A92%29.77 "Hg6 mi
11:00 PM
Jul 28
66 °FPassing clouds.N/A90%29.79 "Hg7 mi
10:00 PM67 °FPassing clouds.N/A87%29.79 "Hg8 mi
9:00 PM67 °FPassing clouds.6 mph80%29.79 "Hg13 mi
8:00 PM70 °FPartly sunny.6 mph76%29.79 "Hg11 mi
7:00 PM72 °FPartly sunny.3 mph72%29.78 "Hg9 mi
6:00 PM73 °FPartly sunny.3 mph75%29.79 "Hg9 mi
5:00 PM72 °FOvercast.5 mph77%29.80 "Hg9 mi
Weather by CustomWeather, © 2014

See weather overviewHow to use our weather pages